Location: Adavinekkalam
(16.6301°N, 80.7229°E)
Time: 10:57:40
(UTC+00:00)

Atlas Centaur 2 - Pass Details

Date: 15 May 2026
Orbit: 456 x 1246 km, 30.4° (Epoch: 6 June)

Event Time Altitude Azimuth Distance (km) Brightness Sun altitude
Exits shadow 22:15:34 - 307° (NW) 3,186 5.0 -24.8°
Reaches altitude 10° 22:16:18 10° 310° (NW) 2,986 4.8 -24.7°
Maximum altitude 22:23:02 33° 13° (NNE) 1,894 4.3 -23.3°
Drops below altitude 10° 22:30:14 10° 74° (ENE) 3,207 6.3 -21.8°
Sets 22:33:30 0° 83° (E) 4,160 7.0 -21.1°
